Simultaneous Nadir Overpasses (SNOs) Predictions

Prediction of SNOs between GOES-16 and TERRA Satellite Orbit:

Table of predicted SNOs for the next 14.0 days since TLE Epoch: 3/29/2019
Index Date Time (GOES-16) GOES-16 Lat,Lon TERRA Lat,Lon Distance(km) Time Diff (sec)
1 03/30/2019 15:18:09 -0.00, -75.21 -0.63, -72.35 325.77 80
2 03/31/2019 03:42:13 0.00, -75.18 -0.49, -77.53 267.11 80
3 04/02/2019 03:27:22 0.00, -75.19 0.16, -74.58 69.59 80
4 04/04/2019 03:15:10 0.01, -75.20 0.74, -71.62 406.86 80
5 04/04/2019 15:39:05 -0.00, -75.23 0.33, -76.78 176.56 80
6 04/06/2019 15:24:15 -0.01, -75.24 -0.33, -73.83 161.41 80
7 04/07/2019 03:48:18 0.00, -75.23 -0.79, -79.02 430.87 80
8 04/08/2019 15:12:03 -0.01, -75.26 -0.92, -70.86 499.64 80
9 04/09/2019 03:36:06 0.00, -75.24 -0.19, -76.06 92.61 80
10 04/11/2019 03:21:15 0.00, -75.26 0.47, -73.11 245.81 80
11 04/11/2019 15:42:31 -0.00, -75.29 0.60, -78.27 337.55 80




NCC Satellite Simultaneous Nadir Overpasses (SNOs) Prediction Service
